sat.trackr.live / text

‹ back to catalog

STARLINK-34263

NORAD 64164 · 2025-112U

PAYLOAD ACTIVE UNKNOWN

§ Identity

Operator
Country
US
Launch date
2025-05-27
Launch site
AFWTR
Launch vehicle
Mass (kg)
RCS (m²)

Purposes: comms

External: N2YO · Heavens-Above · Gunter

§ Orbital elements

Epoch: 2026-05-25T03:49:56.550720Z

Period
95.64 min
Inclination
97.4493°
Eccentricity
0.0001594
Mean motion
15.05647306 rev/d
Perigee alt
548.4 km
Apogee alt
550.6 km
Semi-major
6,927.7 km
B*
3.3765e-4
RAAN
196.5154°
Arg perigee
175.8452°
Mean anomaly
184.2789°
Rev number
5,481

§ Raw data

STARLINK-342631 64164U 25112U   26145.15968230  .00004816  00000+0  33765-3 0  99992 64164  97.4493 196.5154 0001594 175.8452 184.2789 15.05647306 54815

JSON: /api/v1/satellites/64164 · /tle

For live sub-satellite position, see the globe view (requires WebGL).

§ Visibility from observer

Set your observer location to see the next 7 days of passes ≥ 10°. The values pass through the URL so the page stays shareable.

No JS? Fill the form by hand. The geolocation button needs JavaScript.